TimeCEST,TemperatureF,Dew PointF,Humidity,Sea Level PressureIn,VisibilityMPH,Wind Direction,Wind SpeedMPH,Gust SpeedMPH,PrecipitationIn,Events,Conditions,WindDirDegrees,DateUTC
12:00 AM,62.6,53.6,72,29.74,-9999.0,Variable,3.5,-,N/A,,Clear,0,2013-05-19 22:00:00
12:30 AM,66.2,53.6,64,29.77,-9999.0,WSW,10.4,-,N/A,,Clear,250,2013-05-19 22:30:00
1:00 AM,64.4,53.6,68,29.77,-9999.0,WSW,6.9,-,N/A,,Clear,250,2013-05-19 23:00:00
1:30 AM,64.4,50.0,59,29.77,-9999.0,Variable,2.3,-,N/A,,Clear,0,2013-05-19 23:30:00
2:00 AM,64,49,49,29.77,25,,2.2,,,,Clear,,2013-05-20 00:00:00
2:00 AM,64.4,50.0,59,29.77,-9999.0,Calm,Calm,-,N/A,,Clear,0,2013-05-20 00:00:00
2:30 AM,62.6,50.0,63,29.77,-9999.0,SSE,3.5,-,N/A,,Clear,150,2013-05-20 00:30:00
3:00 AM,64.4,48.2,56,29.77,-9999.0,SSE,4.6,-,N/A,,Clear,160,2013-05-20 01:00:00
3:30 AM,60.8,51.8,72,29.77,6.2,West,10.4,-,N/A,Rain,Light Rain,260,2013-05-20 01:30:00
4:00 AM,59.0,53.6,82,29.77,-9999.0,WSW,10.4,-,N/A,,Clear,240,2013-05-20 02:00:00
4:30 AM,60.8,53.6,77,29.77,-9999.0,WSW,5.8,-,N/A,,Clear,250,2013-05-20 02:30:00
5:00 AM,59.0,51.8,77,29.77,-9999.0,SW,3.5,-,N/A,,Clear,220,2013-05-20 03:00:00
5:30 AM,59.0,51.8,77,29.80,6.2,Variable,1.2,-,N/A,,Partly Cloudy,0,2013-05-20 03:30:00
6:00 AM,60.8,53.6,77,29.80,6.2,West,4.6,-,N/A,,Scattered Clouds,270,2013-05-20 04:00:00
6:30 AM,60.8,55.4,82,29.80,6.2,West,3.5,-,N/A,,Scattered Clouds,260,2013-05-20 04:30:00
7:00 AM,60.8,53.6,77,29.80,6.2,SW,6.9,-,N/A,,Scattered Clouds,220,2013-05-20 05:00:00
7:30 AM,62.6,55.4,77,29.80,6.2,SSW,12.7,-,N/A,Rain,Light Rain Showers,200,2013-05-20 05:30:00
8:00 AM,62,54,69,29.82,9,SW,13.4,,,Rain,Light Rain Showers,220,2013-05-20 06:00:00
8:00 AM,60.8,55.4,82,29.83,6.2,SW,12.7,-,N/A,,Mostly Cloudy,220,2013-05-20 06:00:00
8:30 AM,59.0,55.4,88,29.83,6.2,SW,13.8,-,N/A,,Mostly Cloudy,220,2013-05-20 06:30:00
9:00 AM,59.0,51.8,77,29.83,6.2,SW,16.1,-,N/A,,Mostly Cloudy,220,2013-05-20 07:00:00
9:30 AM,59.0,51.8,77,29.86,6.2,SSW,15.0,-,N/A,,Mostly Cloudy,210,2013-05-20 07:30:00
10:00 AM,60.8,51.8,72,29.86,6.2,SW,13.8,-,N/A,,Mostly Cloudy,220,2013-05-20 08:00:00
10:30 AM,62.6,51.8,68,29.86,6.2,SW,15.0,-,N/A,,Mostly Cloudy,220,2013-05-20 08:30:00
11:00 AM,59.0,50.0,72,29.89,6.2,SW,17.3,-,N/A,,Scattered Clouds,220,2013-05-20 09:00:00
11:30 AM,62.6,48.2,59,29.89,6.2,SSW,17.3,-,N/A,,Scattered Clouds,200,2013-05-20 09:30:00
12:00 PM,64.4,50.0,59,29.89,6.2,SSW,17.3,-,N/A,,Scattered Clouds,210,2013-05-20 10:00:00
12:30 PM,62.6,48.2,59,29.89,6.2,SW,18.4,-,N/A,,Scattered Clouds,220,2013-05-20 10:30:00
1:00 PM,64.4,50.0,59,29.89,6.2,WSW,20.7,-,N/A,,Scattered Clouds,240,2013-05-20 11:00:00
1:30 PM,64.4,46.4,52,29.89,6.2,SW,20.7,-,N/A,,Scattered Clouds,230,2013-05-20 11:30:00
2:00 PM,65,48,43,29.88,28,SW,20.1,,,,Partly Cloudy,230,2013-05-20 12:00:00
2:00 PM,64.4,48.2,56,29.89,6.2,SW,19.6,-,N/A,,Scattered Clouds,230,2013-05-20 12:00:00
2:30 PM,66.2,46.4,49,29.86,6.2,SW,20.7,-,N/A,,Scattered Clouds,230,2013-05-20 12:30:00
3:00 PM,66.2,46.4,49,29.86,6.2,SW,21.9,-,N/A,,Partly Cloudy,220,2013-05-20 13:00:00
3:30 PM,68.0,48.2,49,29.86,6.2,SW,17.3,-,N/A,,Scattered Clouds,230,2013-05-20 13:30:00
4:00 PM,66.2,46.4,49,29.86,6.2,SW,17.3,-,N/A,,Scattered Clouds,220,2013-05-20 14:00:00
4:30 PM,66.2,46.4,49,29.86,6.2,SW,17.3,-,N/A,,Scattered Clouds,220,2013-05-20 14:30:00
5:00 PM,68.0,46.4,46,29.86,6.2,SW,16.1,-,N/A,,Scattered Clouds,230,2013-05-20 15:00:00
5:30 PM,66.2,44.6,46,29.86,6.2,SW,16.1,-,N/A,,Scattered Clouds,220,2013-05-20 15:30:00
6:00 PM,66.2,44.6,46,29.86,6.2,SW,17.3,-,N/A,,Scattered Clouds,220,2013-05-20 16:00:00
6:30 PM,62.6,46.4,55,29.89,6.2,SW,17.3,-,N/A,,Scattered Clouds,220,2013-05-20 16:30:00
7:00 PM,60.8,46.4,59,29.89,6.2,SW,13.8,-,N/A,,Scattered Clouds,230,2013-05-20 17:00:00
7:30 PM,59.0,42.8,55,29.89,6.2,WSW,9.2,-,N/A,,Partly Cloudy,250,2013-05-20 17:30:00
8:00 PM,56,44,55,29.90,31,SW,8.9,,,,Partly Cloudy,230,2013-05-20 18:00:00
8:00 PM,57.2,44.6,63,29.89,-9999.0,SW,9.2,-,N/A,,Clear,230,2013-05-20 18:00:00
8:30 PM,55.4,44.6,67,29.89,-9999.0,SW,9.2,-,N/A,,Clear,220,2013-05-20 18:30:00
9:00 PM,55.4,42.8,63,29.89,-9999.0,SSW,4.6,-,N/A,,Clear,200,2013-05-20 19:00:00
9:30 PM,53.6,44.6,72,29.92,-9999.0,WSW,4.6,-,N/A,,Clear,240,2013-05-20 19:30:00
10:00 PM,53.6,42.8,67,29.92,-9999.0,SSW,4.6,-,N/A,,Clear,210,2013-05-20 20:00:00
10:30 PM,55.4,42.8,63,29.92,-9999.0,South,3.5,-,N/A,,Clear,190,2013-05-20 20:30:00
11:00 PM,53.6,42.8,67,29.92,-9999.0,Variable,2.3,-,N/A,,Clear,0,2013-05-20 21:00:00
11:30 PM,51.8,44.6,76,29.92,-9999.0,WSW,3.5,-,N/A,,Clear,240,2013-05-20 21:30:00